DELTA 1 DEB

基本信息
目录编号:
42083
目录名称:
DELTA 1 DEB
国际标识:
1968-114K
轨道中心:
EARTH
物体状态:
在轨
发射日期:
1968-12-15 UTC
轨道信息
数据来源: 国际轨道数据
星历时间: 2026-07-11T15:59:00+0800
半长轴: 7631.137km
偏心率: 0.0282453
轨道倾角: 101.866°
近地点辐角: 56.864°
升交点赤经: 232.177°
平近点角: 6.099°
近地点: 1037.456km
远地点: 1468.544km
周期: 110.572分钟
每日圈数: 13.023237
详细信息
发射场:
AFWTR
轨道高度:
LEO
数据来源:
AOE Integration Group
参考系:
TEME
时间系统:
UTC
历元类型:
SGP4
2D轨道图
3D轨道图
轨道高度分析图
轨道倾角分析图
轨道综合分析图
查看轨道综合分析图